Corvallis Municipal Airport
KCVO : now visible

Airfield :











YOU CAN JOIN US ON...

 
LOGIN :

Register | Disclaimer

   EN    FR    IT 

 









Legend :    VFR   Marginal VFR   IFR   Intensive IFR   Very Intensive IFR
Visi :
Ceiling :
>= 8 km
>= 3000ft
5 to 8 km
1000 to 3000 ft
1500m to 5 km
500 to 1000 ft
800 to 1500m
200 to 500 ft
< 800m
< 200 ft
Symbols :   Thunderstorms  Fog  Heavy snow  Heavy precipitations  Wind > 20 kt






- Airport Elevation : 250 ft


KCVO - Corvallis Municipal

CURRENT METAR :
  • 250356Z AUTO 30010KT 10SM CLR 23/14 A2998 RMK AO2 SLP150 T02330144

EXPIRED METARs :
  • 250256Z AUTO 32011KT 10SM CLR 26/15 A2997 RMK AO2 SLP149 T02610150 53001
  • 250156Z AUTO 31011KT 10SM CLR 28/15 A2997 RMK AO2 SLP146 T02780150

TAF N/A
KZSE FIR / North America



MET'MAP, your aeronautical weather chart ! - Copyright ORBIFLY December 2007 - Disclaimer

ORBIFLY MET'MAP TEAM :

Programming & Development : Alexandra Zaïnal
Concept & original design : Baudouin d'Aumeries
Assistance for programming : Marc-Olivier Méhu
Technical & hardware support : Manuel Goepfert

Contact : metmap@orbifly.com




SOURCES & CREDITS :

   NOAA       Earth
Advisory